Theta_e
311 312 312 312 314 314 314 315 316 317 317 319 320 319 319 321 326 323 324 327 326 326 329 330 331 335 337 340 339 337 335 336 333 335 336 332 332 331 331 335 336 335 332
310 310 310 311 312 313 314 316 316 316 317 319 319 317 319 322 322 321 323 324 321 321 323 326 327 330 333 335 336 337 335 338 336 332 333 330 330 329 329 330 333 334 334
308 309 310 310 310 311 313 315 316 316 317 317 316 316 317 320 321 322 320 320 321 322 323 323 326 329 329 332 330 332 336 338 337 333 331 328 329 327 327 329 331 329 330
306 307 308 309 310 311 313 314 315 315 316 314 315 315 316 318 319 319 318 318 320 320 322 325 326 326 327 327 325 325 327 331 334 331 329 326 325 326 327 326 326 327 326
307 306 306 308 309 310 311 312 313 313 313 314 313 314 315 316 315 316 317 317 317 318 321 323 323 325 321 321 323 323 326 328 330 329 325 323 323 322 325 325 327 325 325
305 305 306 307 307 307 309 311 311 311 312 312 312 313 312 313 307 306 312 315 316 317 317 319 320 318 319 313 313 313 317 324 325 328 325 322 322 323 322 324 324 323 321
304 305 307 308 307 308 309 309 309 310 311 311 312 312 312 312 303 302 305 313 313 313 314 315 315 319 317 322 316 313 313 310 312 329 326 325 324 324 325 322 324 326 324
300 303 305 306 307 308 308 308 309 309 309 310 310 311 312 312 302 301 302 310 311 312 313 314 315 317 318 318 321 322 324 327 325 324 330 328 328 325 328 329 327 325 324
297 299 301 304 304 306 306 307 308 308 308 308 309 310 309 310 301 300 302 310 309 310 312 315 316 316 309 300 316 318 320 321 315 308 309 308 307 307 317 326 323 323 319
296 298 300 301 302 303 304 305 306 305 307 307 307 308 307 309 300 299 302 308 307 308 312 314 305 313 304 302 314 316 313 319 326 321 320 312 309 314 309 330 327 324 321
297 298 298 299 300 301 302 304 304 304 305 304 305 306 306 306 306 297 298 306 307 307 308 309 310 301 301 299 298 311 314 320 319 324 323 321 320 320 320 327 329 327 323
297 296 296 297 298 299 300 301 303 304 303 303 303 304 305 305 301 299 296 297 303 306 306 308 310 299 298 297 298 301 299 304 324 323 321 320 320 318 320 326 327 327 329
295 295 296 297 298 299 299 299 299 300 300 300 300 301 302 304 305 299 297 295 296 303 308 306 302 297 296 298 298 297 297 320 323 321 321 320 323 324 324 325 325 326 326
293 294 294 294 295 296 297 297 297 298 299 299 299 300 301 302 304 306 305 303 299 302 303 306 305 302 299 305 306 307 310 325 323 323 322 321 322 322 322 323 322 322 325
294 295 295 296 296 296 297 297 298 299 299 298 300 301 301 301 304 303 305 308 308 306 305 307 307 307 307 309 310 313 320 323 322 321 319 322 322 323 322 325 323 323 323
294 294 295 296 297 298 298 298 297 297 297 296 296 300 303 300 298 297 297 298 297 297 305 308 307 307 307 309 314 316 321 317 321 322 322 323 321 322 322 324 325 322 319
293 295 296 296 297 297 297 298 297 299 296 296 296 295 296 300 296 295 296 295 295 294 308 310 310 310 311 314 318 319 320 322 322 322 323 322 323 324 319 320 320 320 319
294 294 295 295 296 296 297 298 298 298 298 300 296 297 295 297 295 295 293 293 302 297 307 307 309 314 314 318 319 321 321 320 321 321 321 322 322 320 321 320 319 318 318
294 294 296 297 297 297 298 299 299 300 303 303 300 295 296 295 294 294 292 303 307 308 309 310 312 315 319 321 322 322 321 321 321 321 321 322 321 321 321 321 317 304 308
294 292 292 293 294 295 296 298 304 303 302 300 298 298 298 296 297 299 301 304 308 308 311 314 317 320 322 322 322 322 320 317 320 322 321 322 322 322 321 318 317 316 316
291 292 290 292 294 297 307 308 307 303 303 302 302 302 295 303 303 304 305 305 306 308 312 320 321 321 322 321 322 321 320 321 322 321 322 322 322 320 318 319 319 318 317
290 291 293 296 311 312 312 311 310 308 307 305 305 297 290 306 306 307 308 310 316 320 321 321 321 322 323 323 322 322 321 320 321 323 323 322 320 317 316 320 320 318 317
291 292 297 312 310 303 307 307 305 303 303 305 305 303 304 306 306 305 305 308 310 312 314 316 317 319 322 322 323 324 323 323 324 324 321 319 318 316 319 320 319 316 315
294 299 310 308 306 305 303 301 299 296 298 298 298 298 298 299 299 299 300 302 302 303 305 308 311 313 315 318 320 322 322 321 321 320 320 319 316 314 320 319 317 315 312
303 308 306 304 302 301 300 299 298 297 296 296 296 295 296 296 296 296 297 297 298 298 298 300 302 304 306 308 307 306 295 295 313 304 320 320 318 316 316 312 311 312 309
306 304 302 301 300 298 297 295 294 294 293 293 293 292 293 293 293 293 294 294 293 293 293 294 295 296 297 296 296 291 291 292 299 295 314 314 309 307 306 304 302 300 300
Wind_Speed
1 5 3 8 8 6 6 6 7 5 6 6 6 6 5 5 5 4 4 4 4 3 3 5 6 6 5 6 6 6 7 6 6 5 3 1 2 3 4 3 7 6 5
4 4 6 6 3 4 8 9 8 9 6 9 7 6 6 6 5 5 5 4 4 4 4 4 6 4 7 7 5 7 7 4 5 11 7 3 5 5 5 4 6 3 3
4 10 10 9 7 10 9 9 8 9 9 8 8 8 7 7 6 6 6 5 5 5 4 4 6 5 6 5 7 7 7 6 8 10 8 2 3 3 2 3 5 3 2
4 5 8 9 11 11 12 10 9 11 10 10 10 10 9 8 7 6 6 6 6 5 5 6 6 5 6 6 7 8 8 9 8 8 6 4 3 3 2 4 4 2 2
6 4 7 5 6 7 8 10 10 8 11 11 10 10 10 8 7 9 8 8 7 6 6 7 6 7 8 8 6 9 8 9 8 7 6 4 4 4 8 4 5 3 3
6 6 5 5 6 8 9 10 10 12 12 10 11 11 11 9 13 15 11 8 9 8 8 8 7 9 10 13 14 14 13 11 11 10 7 7 8 4 2 4 4 3 2
5 6 7 6 7 7 6 7 9 11 11 12 12 12 13 12 14 15 15 8 7 8 9 9 9 7 11 10 12 15 16 16 20 13 11 13 9 10 8 6 5 5 4
9 8 8 7 7 7 7 8 7 6 10 10 11 11 11 10 14 14 14 8 7 8 10 11 11 10 9 11 11 13 13 12 12 10 12 7 4 7 10 6 6 6 3
11 11 10 9 10 8 8 9 7 6 8 7 6 11 11 10 13 14 10 6 8 9 9 10 10 11 13 12 11 12 12 13 5 8 5 3 6 9 9 7 6 7 4
13 14 13 12 11 11 11 11 7 7 11 7 9 9 11 11 12 14 12 8 9 7 7 9 13 12 12 15 11 10 13 13 9 5 3 3 4 8 13 9 8 8 4
14 14 15 15 14 13 11 8 9 10 9 9 9 8 10 11 11 16 16 10 9 8 8 8 7 14 17 16 14 10 13 13 10 9 6 4 4 5 6 6 8 7 6
14 16 17 17 13 13 14 10 11 11 12 11 11 10 10 11 14 14 17 18 13 10 10 9 8 13 15 15 11 15 18 14 7 7 6 5 5 7 7 6 7 5 3
19 21 15 14 12 11 12 13 11 13 12 13 13 13 13 11 11 17 17 18 18 11 10 11 11 13 13 9 14 14 10 9 8 7 7 5 6 6 8 6 5 4 2
18 18 16 15 15 15 12 13 13 13 13 14 14 14 13 12 11 9 9 9 15 10 12 8 8 9 11 11 8 7 8 8 8 8 7 5 5 6 6 4 3 4 4
17 16 16 14 15 14 14 14 14 16 16 15 15 14 12 12 11 11 12 10 9 10 8 8 8 9 11 10 9 8 9 8 7 6 7 8 7 8 6 6 5 5 4
16 13 13 12 12 12 12 13 23 27 26 28 26 17 13 16 14 17 17 16 15 14 8 9 9 8 12 10 9 10 9 10 8 8 8 9 8 8 8 6 5 5 3
17 16 13 15 12 14 15 15 15 17 33 36 31 32 26 15 17 17 18 18 19 13 8 9 10 10 11 10 10 11 8 9 11 9 10 8 8 8 7 5 4 3 2
15 22 13 13 13 13 12 13 13 14 15 14 28 29 29 27 18 17 15 11 6 6 9 11 11 9 10 11 12 10 8 8 7 10 9 8 8 9 8 6 5 4 3
13 11 12 12 12 12 11 12 11 12 7 9 9 16 22 23 17 14 14 7 10 11 10 10 10 11 11 10 10 9 10 9 9 8 8 8 8 7 7 6 4 5 5
12 15 16 13 12 11 9 9 5 3 4 7 8 9 10 9 8 10 10 11 8 6 7 11 12 12 9 10 9 8 8 10 9 8 8 7 7 7 7 6 5 6 3
10 10 14 11 12 11 7 5 5 4 5 7 8 10 14 10 10 9 9 10 10 10 12 9 8 8 10 8 9 9 10 9 9 9 8 8 8 7 5 5 5 5 5
11 10 10 10 3 6 7 5 5 5 6 7 7 6 11 6 6 7 9 11 10 9 8 8 8 7 8 9 9 9 10 10 9 8 8 8 7 6 5 6 6 5 5
10 10 10 4 7 9 9 8 8 8 9 9 9 8 6 6 7 8 9 8 9 9 8 8 8 8 7 8 8 9 10 10 8 8 8 7 7 6 7 6 6 5 4
8 8 5 7 9 10 10 9 10 12 11 11 10 10 9 10 11 12 10 10 10 11 9 9 8 9 10 8 7 7 8 7 7 7 10 8 7 7 6 6 5 6 5
4 7 8 9 9 9 9 10 11 10 11 10 11 11 11 11 10 10 11 11 11 12 12 9 8 11 13 14 12 11 10 11 9 8 7 9 10 9 8 7 7 7 7
8 9 9 9 9 9 9 10 11 10 10 10 10 10 10 11 10 11 11 12 11 11 11 9 11 15 14 12 12 11 12 11 11 11 9 9 9 7 8 9 10 7 8
Wind_Direction
35 319 223 210 190 172 190 195 204 195 204 207 212 202 202 199 195 172 201 212 226 235 245 240 255 265 274 262 237 229 235 218 272 298 276 293 285 255 265 256 246 209 195
245 234 244 245 204 209 205 208 204 212 200 212 198 208 207 201 189 192 201 220 231 249 256 276 285 293 289 281 283 282 257 226 264 267 263 218 219 223 208 193 245 198 186
239 222 217 210 206 202 215 224 202 212 216 212 196 210 212 211 196 196 199 213 228 236 249 261 268 275 300 319 329 325 309 281 243 250 265 172 224 240 195 161 219 160 112
285 257 234 219 213 214 213 207 221 209 211 209 207 209 214 213 208 212 208 215 229 234 237 243 248 268 279 304 304 296 297 288 261 235 248 227 202 212 168 182 206 176 171
311 310 266 268 243 221 200 209 208 212 218 215 207 205 208 205 209 212 214 218 220 233 243 252 251 240 244 257 273 280 275 280 282 235 237 215 182 208 192 175 194 154 203
318 300 293 278 256 227 224 217 211 211 213 209 208 210 210 215 209 206 202 208 216 216 225 242 250 248 260 259 255 248 249 267 270 259 231 213 218 190 140 183 149 150 212
305 300 291 288 285 272 247 229 227 217 208 209 213 210 213 211 204 208 215 217 214 216 226 240 249 238 234 248 254 261 264 245 234 248 216 214 202 187 165 180 172 179 192
298 298 291 285 282 285 273 257 236 212 215 208 209 207 211 212 196 207 215 216 224 226 223 231 236 242 249 257 263 268 274 281 264 218 217 221 199 162 177 183 191 141 98
296 285 275 263 267 266 266 266 257 246 238 220 206 207 207 218 200 205 207 220 229 233 230 231 231 240 246 234 254 266 280 280 242 236 242 223 186 184 164 133 155 162 194
288 287 283 273 262 260 258 251 245 235 250 233 229 210 208 216 206 212 212 239 249 244 228 236 220 229 243 242 240 262 271 270 228 199 206 133 180 207 177 179 160 178 163
278 282 280 274 268 263 259 236 231 231 233 222 225 216 217 216 218 210 209 223 236 239 232 243 234 217 236 242 241 249 255 276 223 207 203 162 160 181 183 178 173 167 170
270 275 275 268 262 263 255 247 236 234 231 225 224 233 231 229 224 223 211 213 219 226 236 250 247 213 234 243 250 254 253 242 180 181 177 158 170 187 184 180 171 169 189
281 276 272 276 269 260 256 254 251 245 241 239 234 235 237 231 229 219 209 208 217 224 237 238 220 220 240 259 256 260 259 207 170 175 178 179 183 175 142 135 125 147 145
272 270 267 260 259 256 251 247 245 241 239 237 235 236 236 232 227 213 216 212 218 210 241 229 228 238 246 262 277 256 225 185 175 183 164 122 147 143 143 123 120 149 173
266 264 261 257 256 255 247 242 239 237 233 237 236 235 231 230 225 198 198 202 207 205 200 223 231 237 248 247 249 223 210 162 169 161 148 145 166 150 142 154 151 168 184
270 266 260 257 253 249 249 250 235 235 231 230 232 224 224 222 203 188 193 193 189 183 196 217 218 211 229 222 213 200 177 167 166 165 152 158 157 156 154 150 165 181 148
264 262 262 254 250 248 245 243 246 236 229 230 228 227 222 221 194 192 194 193 201 167 212 225 217 210 220 214 200 188 167 169 159 163 160 153 152 150 146 150 155 139 155
270 269 266 264 257 253 250 247 245 244 244 234 225 220 210 206 181 184 186 178 191 199 219 225 233 216 216 204 190 175 150 148 164 149 145 153 146 154 151 158 169 152 148
274 270 269 269 267 269 264 260 257 255 246 222 169 193 193 181 177 182 167 214 214 219 218 224 228 234 212 191 173 155 149 150 154 147 140 145 151 150 157 167 149 127 141
277 280 274 273 274 267 257 253 205 143 129 124 125 144 146 149 174 197 208 219 219 232 236 238 214 203 175 154 148 144 137 139 142 139 144 144 150 156 161 150 147 152 159
284 282 273 271 264 259 215 176 146 142 133 125 127 137 148 160 175 184 195 210 220 224 236 170 145 148 145 146 145 145 143 139 144 149 142 145 152 149 139 139 152 152 152
285 284 281 279 248 62 66 76 105 120 125 125 125 121 141 154 173 185 206 214 196 159 128 130 127 126 133 142 142 142 140 134 140 137 138 144 132 130 139 147 159 163 140
281 286 292 80 64 64 65 58 68 67 62 81 98 114 130 118 115 112 94 89 88 88 89 97 106 113 123 124 125 136 133 139 139 135 136 130 133 140 144 151 159 136 134
277 277 61 55 52 65 69 69 64 58 66 67 72 72 75 71 71 69 72 77 78 72 67 73 77 89 88 88 94 95 102 110 117 123 129 129 128 130 130 132 121 106 107
297 72 74 68 59 64 71 68 69 70 68 65 70 64 62 68 70 70 71 72 70 70 60 58 62 67 70 82 83 84 81 81 99 104 103 105 108 106 110 95 101 108 114
69 71 69 71 69 64 67 71 63 65 71 70 69 67 70 71 67 66 67 71 72 70 73 65 63 65 65 62 72 81 83 84 83 83 94 101 102 93 91 92 84 77 73